This is the latest recevied weather packets stored in our database for station/object W5CDN. If no packets are shown the sender has not sent any weather packets the latest 10 day(s).
| Time | Temp. | Humidity | Pressure | Rain* | Wind** | Luminosity | Snow |
|---|---|---|---|---|---|---|---|
| 1788191336 | 32.22° C | 55% | 1017 hPa | 0 mm | - | - | - |
| 1788191036 | 31.67° C | 56% | 1017.1 hPa | 0 mm | - | - | - |
| 1788190736 | 30.56° C | 58% | 1017.2 hPa | 0 mm | - | - | - |
| 1788190436 | 30.56° C | 58% | 1017.2 hPa | 0 mm | - | - | - |
| 1788190136 | 30.56° C | 59% | 1017.2 hPa | 0 mm | - | - | - |
| 1788189836 | 30.56° C | 59% | 1017.1 hPa | 0 mm | - | - | - |
| 1788189536 | 30.56° C | 62% | 1016.9 hPa | 0 mm | - | - | - |
| 1788189236 | 30° C | 63% | 1016.8 hPa | 0 mm | - | - | - |
| 1788188936 | 30° C | 63% | 1017 hPa | 0 mm | - | - | - |
| 1788188636 | 28.89° C | 66% | 1017.1 hPa | 0 mm | - | - | - |
| 1788188336 | 28.89° C | 67% | 1017.2 hPa | 0 mm | - | - | - |
| 1788188036 | 28.33° C | 68% | 1017 hPa | 0 mm | - | - | - |
| 1788187736 | 28.89° C | 69% | 1017.1 hPa | 0 mm | - | - | - |
| 1788187436 | 28.33° C | 69% | 1016.9 hPa | 0 mm | - | - | - |
| 1788187136 | 27.78° C | 71% | 1017 hPa | 0 mm | - | - | - |
| 1788186836 | 27.22° C | 73% | 1017.1 hPa | 0 mm | - | - | - |
| 1788186536 | 27.22° C | 74% | 1017.1 hPa | 0 mm | - | - | - |
| 1788186245 | 27.78° C | 73% | 1016.9 hPa | 0 mm | - | - | - |
| 1788185936 | 26.67° C | 77% | 1016.8 hPa | 0 mm | - | - | - |
| 1788185636 | 27.22° C | 77% | 1016.8 hPa | 0 mm | - | - | - |
| 1788185336 | 26.67° C | 77% | 1016.8 hPa | 0 mm | - | - | - |
| 1788185036 | 27.22° C | 78% | 1016.8 hPa | 0 mm | - | - | - |
| 1788184736 | 27.22° C | 78% | 1016.8 hPa | 0 mm | - | - | - |
| 1788184436 | 26.67° C | 79% | 1016.7 hPa | 0 mm | - | - | - |
| 1788184136 | 26.67° C | 79% | 1016.8 hPa | 0 mm | - | - | - |
* Rain latest hour (hover to see other rain measurements)
** Current wind speed in m/s (hover to see current wind gust speed)